,,,PA_Meas_PMT16A,,PR_Meas_QMR101_102,,RH_Meas_QMH101,,SR_Meas_QMS101,,TA_Meas_QMH101,,GenWind,,GenWind,
date,time,status,PA,status,PR,status,RH,status,SR,status,TA,status,DirAvg,status,SpdAvg,
2011-11-09, 00:00:04,VALID,1004.97,VALID,0,VALID,89.0138,VALID,0,VALID,24.9457,VALID,350,VALID,0.558984,
2011-11-09, 00:01:04,VALID,1004.94,VALID,0,VALID,89.0138,VALID,0.0815089,VALID,24.9476,VALID,347,VALID,1.16836,
2011-11-09, 00:02:04,VALID,1004.95,VALID,0,VALID,89.0748,VALID,0,VALID,24.9476,VALID,339,VALID,0.889844,
2011-11-09, 00:03:04,VALID,1004.97,VALID,0,VALID,89.1816,VALID,0,VALID,24.9282,VALID,345,VALID,0.6625,
2011-11-09, 00:04:04,VALID,1004.95,VALID,0,VALID,89.296,VALID,0,VALID,24.9282,VALID,346,VALID,0.664063,
2011-11-09, 00:05:04,VALID,1004.9,VALID,0,VALID,89.3418,VALID,0.0815089,VALID,24.8873,VALID,346,VALID,0.380078,
2011-11-09, 00:06:04,VALID,1004.91,VALID,0,VALID,89.38,VALID,0,VALID,24.9106,VALID,342,VALID,0.387891,
2011-11-09, 00:07:04,VALID,1004.87,VALID,0,VALID,89.5631,VALID,0.0815089,VALID,24.8679,VALID,343,VALID,0.634375,
2011-11-09, 00:08:04,VALID,1004.83,VALID,0,VALID,89.6012,VALID,0,VALID,24.8892,VALID,346,VALID,0.458984,
2011-11-09, 00:09:04,VALID,1004.84,VALID,0,VALID,89.6393,VALID,0.0815089,VALID,24.8892,VALID,6,VALID,0.638281,
2011-11-09, 00:10:04,VALID,1004.82,VALID,0,VALID,89.7461,VALID,0,VALID,24.8892,VALID,2,VALID,1.04492,
2011-11-09, 00:11:04,VALID,1004.81,VALID,0,VALID,89.6927,VALID,0,VALID,24.8697,VALID,32,VALID,0.530859,
2011-11-09, 00:12:04,VALID,1004.78,VALID,0,VALID,89.7996,VALID,0.0815089,VALID,24.8911,VALID,31,VALID,0.310937,
2011-11-09, 00:13:04,VALID,1004.78,VALID,0,VALID,89.9216,VALID,0.0815089,VALID,24.8503,VALID,31,VALID,0.105469,
2011-11-09, 00:14:04,VALID,1004.79,VALID,0,VALID,90.0666,VALID,0.0815089,VALID,24.8113,VALID,31,VALID,0.0503906,
2011-11-09, 00:15:04,VALID,1004.81,VALID,0,VALID,90.3259,VALID,0.0815089,VALID,24.8113,VALID,8,VALID,0.758203,
2011-11-09, 00:16:04,VALID,1004.83,VALID,0,VALID,90.1657,VALID,0.0815089,VALID,24.8503,VALID,347,VALID,0.334375,
2011-11-09, 00:17:04,VALID,1004.82,VALID,0,VALID,90.0589,VALID,0,VALID,24.8289,VALID,347,VALID,0.276953,
2011-11-09, 00:18:04,VALID,1004.77,VALID,0,VALID,90.0818,VALID,0,VALID,24.8503,VALID,347,VALID,0.218359,
2011-11-09, 00:19:04,VALID,1004.77,VALID,0,VALID,90.1657,VALID,0.0815089,VALID,24.8503,VALID,347,VALID,0.206641,
2011-11-09, 00:20:04,VALID,1004.76,VALID,0,VALID,90.2878,VALID,0,VALID,24.8095,VALID,348,VALID,0.414844,
2011-11-09, 00:21:04,VALID,1004.78,VALID,0,VALID,90.4404,VALID,0,VALID,24.8308,VALID,348,VALID,0.336328,
2011-11-09, 00:22:04,VALID,1004.76,VALID,0,VALID,90.3793,VALID,0.0815089,VALID,24.8113,VALID,351,VALID,0.338281,
2011-11-09, 00:23:04,VALID,1004.76,VALID,0,VALID,90.4022,VALID,0,VALID,24.7919,VALID,18,VALID,0.364062,
2011-11-09, 00:24:04,VALID,1004.77,VALID,0,VALID,90.5014,VALID,0.0815089,VALID,24.7724,VALID,18,VALID,0.254297,
2011-11-09, 00:25:04,VALID,1004.76,VALID,0,VALID,90.593,VALID,0.0815089,VALID,24.7529,VALID,18,VALID,0.333984,
2011-11-09, 00:26:04,VALID,1004.77,VALID,0,VALID,90.6158,VALID,0.0815089,VALID,24.7316,VALID,18,VALID,0.432813,
2011-11-09, 00:27:04,VALID,1004.74,VALID,0,VALID,90.654,VALID,0.0815089,VALID,24.7335,VALID,18,VALID,0.270312,
2011-11-09, 00:28:04,VALID,1004.74,VALID,0,VALID,90.6464,VALID,0.0815089,VALID,24.7121,VALID,18,VALID,0.324609,
2011-11-09, 00:29:04,VALID,1004.71,VALID,0,VALID,90.6464,VALID,0.0815089,VALID,24.7335,VALID,18,VALID,0.0324219,
2011-11-09, 00:30:04,VALID,1004.72,VALID,0,VALID,90.7303,VALID,0.0815089,VALID,24.7121,VALID,18,VALID,0.309766,
2011-11-09, 00:31:04,VALID,1004.68,VALID,0,VALID,90.7455,VALID,0,VALID,24.714,VALID,12,VALID,0.421875,
2011-11-09, 00:32:04,VALID,1004.65,VALID,0,VALID,90.7608,VALID,0,VALID,24.7529,VALID,338,VALID,0.331641,
2011-11-09, 00:33:04,VALID,1004.65,VALID,0,VALID,90.7532,VALID,0,VALID,24.7529,VALID,349,VALID,0.383984,
2011-11-09, 00:34:04,VALID,1004.58,VALID,0,VALID,90.715,VALID,0,VALID,24.7529,VALID,349,VALID,0.234375,
2011-11-09, 00:35:04,VALID,1004.56,VALID,0,VALID,90.715,VALID,0,VALID,24.7529,VALID,349,VALID,0.258594,
2011-11-09, 00:36:04,VALID,1004.53,VALID,0,VALID,90.6769,VALID,0,VALID,24.7724,VALID,2,VALID,0.585938,
2011-11-09, 00:37:04,VALID,1004.49,VALID,0,VALID,90.654,VALID,0,VALID,24.7724,VALID,348,VALID,0.516797,
2011-11-09, 00:38:04,VALID,1004.51,VALID,0,VALID,90.5014,VALID,0,VALID,24.751,VALID,348,VALID,0.927344,
2011-11-09, 00:39:04,VALID,1004.5,VALID,0,VALID,90.3031,VALID,0.0815089,VALID,24.79,VALID,338,VALID,0.489062,
2011-11-09, 00:40:04,VALID,1004.5,VALID,0,VALID,89.9979,VALID,0,VALID,24.8484,VALID,336,VALID,0.957812,
2011-11-09, 00:41:04,VALID,1004.47,VALID,0,VALID,89.8301,VALID,0,VALID,24.9068,VALID,335,VALID,0.297656,
2011-11-09, 00:42:04,VALID,1004.45,VALID,0,VALID,89.6851,VALID,0,VALID,24.9476,VALID,341,VALID,0.489062,
2011-11-09, 00:43:04,VALID,1004.45,VALID,0,VALID,89.4791,VALID,0,VALID,24.9866,VALID,10,VALID,0.417188,
2011-11-09, 00:44:04,VALID,1004.4,VALID,0,VALID,89.3418,VALID,0.0815089,VALID,25.006,VALID,9,VALID,0.424219,
2011-11-09, 00:45:04,VALID,1004.36,VALID,0,VALID,89.2198,VALID,0,VALID,25.006,VALID,7,VALID,0.360156,
2011-11-09, 00:46:04,VALID,1004.32,VALID,0,VALID,89.0061,VALID,0,VALID,25.0255,VALID,40,VALID,0.451953,
2011-11-09, 00:47:04,VALID,1004.3,VALID,0,VALID,88.8307,VALID,0,VALID,25.0839,VALID,357,VALID,0.540234,
2011-11-09, 00:48:04,VALID,1004.27,VALID,0,VALID,88.8231,VALID,0,VALID,25.1034,VALID,2,VALID,0.679688,
2011-11-09, 00:49:04,VALID,1004.22,VALID,0,VALID,88.7315,VALID,0.0815089,VALID,25.1015,VALID,348,VALID,0.849609,
2011-11-09, 00:50:04,VALID,1004.2,VALID,0,VALID,88.6552,VALID,0,VALID,25.1015,VALID,343,VALID,0.548437,
2011-11-09, 00:51:04,VALID,1004.15,VALID,0,VALID,88.5103,VALID,0,VALID,25.1248,VALID,345,VALID,1.08555,
2011-11-09, 00:52:04,VALID,1004.18,VALID,0,VALID,88.495,VALID,0.0815089,VALID,25.1423,VALID,348,VALID,0.683984,
2011-11-09, 00:53:04,VALID,1004.14,VALID,0,VALID,88.5179,VALID,0.0815089,VALID,25.121,VALID,354,VALID,0.598047,
2011-11-09, 00:54:04,VALID,1004.15,VALID,0,VALID,88.5637,VALID,0.0815089,VALID,25.1015,VALID,358,VALID,0.144141,
2011-11-09, 00:55:04,VALID,1004.11,VALID,0,VALID,88.434,VALID,0,VALID,25.121,VALID,349,VALID,1.06328,
2011-11-09, 00:56:04,VALID,1004.11,VALID,0,VALID,88.2585,VALID,0,VALID,25.1618,VALID,343,VALID,0.686328,
2011-11-09, 00:57:04,VALID,1004.09,VALID,0,VALID,88.1822,VALID,0,VALID,25.2221,VALID,4,VALID,0.498047,
2011-11-09, 00:58:04,VALID,1004.1,VALID,0,VALID,87.9305,VALID,0,VALID,25.2202,VALID,352,VALID,1.26953,
2011-11-09, 00:59:04,VALID,1004.1,VALID,0,VALID,87.7092,VALID,0,VALID,25.2786,VALID,342,VALID,0.8875,
2011-11-09, 01:00:04,VALID,1004.08,VALID,0,VALID,87.7245,VALID,0,VALID,25.2981,VALID,336,VALID,0.240625,
2011-11-09, 01:01:04,VALID,1004.13,VALID,0,VALID,87.6711,VALID,0,VALID,25.2981,VALID,344,VALID,0.416797,
2011-11-09, 01:02:04,VALID,1004.14,VALID,0,VALID,87.6558,VALID,0,VALID,25.2981,VALID,322,VALID,0.538281,
2011-11-09, 01:03:04,VALID,1004.15,VALID,0,VALID,87.5033,VALID,0,VALID,25.2767,VALID,337,VALID,1.28711,
2011-11-09, 01:04:04,VALID,1004.15,VALID,0,VALID,87.549,VALID,0,VALID,25.2981,VALID,348,VALID,0.672266,
2011-11-09, 01:05:04,VALID,1004.16,VALID,0,VALID,87.6177,VALID,0,VALID,25.2981,VALID,352,VALID,0.335938,
2011-11-09, 01:06:04,VALID,1004.17,VALID,0,VALID,87.6787,VALID,0,VALID,25.2572,VALID,316,VALID,0.247656,
2011-11-09, 01:07:04,VALID,1004.15,VALID,0,VALID,87.7398,VALID,0,VALID,25.2592,VALID,354,VALID,0.487891,
2011-11-09, 01:08:04,VALID,1004.16,VALID,0,VALID,87.8923,VALID,0,VALID,25.2397,VALID,354,VALID,0.240234,
2011-11-09, 01:09:04,VALID,1004.14,VALID,0,VALID,87.9457,VALID,0,VALID,25.1794,VALID,317,VALID,0.0117188,
2011-11-09, 01:10:04,VALID,1004.13,VALID,0,VALID,88.0296,VALID,0,VALID,25.1813,VALID,297,VALID,0.367578,
2011-11-09, 01:11:04,VALID,1004.11,VALID,0,VALID,88.022,VALID,0,VALID,25.1618,VALID,287,VALID,0.837109,
2011-11-09, 01:12:04,VALID,1004.12,VALID,0,VALID,88.0907,VALID,0,VALID,25.1618,VALID,278,VALID,0.904688,
2011-11-09, 01:13:04,VALID,1004.12,VALID,0,VALID,87.9915,VALID,0,VALID,25.1618,VALID,290,VALID,0.688672,
2011-11-09, 01:14:04,VALID,1004.13,VALID,0,VALID,88.0296,VALID,0,VALID,25.121,VALID,291,VALID,1.03203,
2011-11-09, 01:15:04,VALID,1004.13,VALID,0,VALID,88.0602,VALID,0,VALID,25.1229,VALID,291,VALID,0.737891,
2011-11-09, 01:16:04,VALID,1004.13,VALID,0,VALID,88.0831,VALID,0,VALID,25.1229,VALID,299,VALID,0.462891,
2011-11-09, 01:17:04,VALID,1004.13,VALID,0,VALID,88.1899,VALID,0,VALID,25.1248,VALID,299,VALID,0.0785156,
2011-11-09, 01:18:04,VALID,1004.16,VALID,0,VALID,88.2433,VALID,0,VALID,25.0839,VALID,288,VALID,0.884766,
2011-11-09, 01:19:04,VALID,1004.13,VALID,0,VALID,88.3577,VALID,0,VALID,25.0431,VALID,285,VALID,0.803906,
2011-11-09, 01:20:04,VALID,1004.16,VALID,0,VALID,88.4645,VALID,0,VALID,25.0236,VALID,272,VALID,1.03906,
2011-11-09, 01:21:04,VALID,1004.17,VALID,0,VALID,88.6094,VALID,0,VALID,25.0236,VALID,275,VALID,0.4875,
2011-11-09, 01:22:04,VALID,1004.15,VALID,0,VALID,88.6552,VALID,0,VALID,25.045,VALID,344,VALID,0.441406,
2011-11-09, 01:23:04,VALID,1004.12,VALID,0,VALID,88.7544,VALID,0,VALID,25.006,VALID,346,VALID,0.453906,
2011-11-09, 01:24:04,VALID,1004.08,VALID,0,VALID,88.9222,VALID,0.0815089,VALID,25.006,VALID,360,VALID,0.08125,
2011-11-09, 01:25:04,VALID,1004.09,VALID,0,VALID,89.0443,VALID,0,VALID,25.006,VALID,360,VALID,0.160938,
2011-11-09, 01:26:04,VALID,1004.07,VALID,0,VALID,89.1511,VALID,0,VALID,24.9866,VALID,358,VALID,0.362109,
2011-11-09, 01:27:04,VALID,1004.05,VALID,0,VALID,89.1969,VALID,0,VALID,25.006,VALID,292,VALID,0.0238281,
2011-11-09, 01:28:04,VALID,1004.01,VALID,0,VALID,89.1892,VALID,0,VALID,25.006,VALID,292,VALID,0.0257812,
2011-11-09, 01:29:04,VALID,1003.99,VALID,0,VALID,89.1587,VALID,0,VALID,25.0469,VALID,292,VALID,0.216406,
2011-11-09, 01:30:04,VALID,1003.95,VALID,0,VALID,89.2121,VALID,0,VALID,25.0469,VALID,292,VALID,0,
2011-11-09, 01:31:04,VALID,1003.94,VALID,0,VALID,89.113,VALID,0.0815089,VALID,25.045,VALID,271,VALID,0.710156,
2011-11-09, 01:32:04,VALID,1003.91,VALID,0,VALID,88.9833,VALID,0,VALID,25.0236,VALID,295,VALID,0.758984,
2011-11-09, 01:33:04,VALID,1003.91,VALID,0,VALID,88.7162,VALID,0,VALID,25.0644,VALID,287,VALID,0.316797,
2011-11-09, 01:34:04,VALID,1003.88,VALID,0,VALID,88.6476,VALID,0,VALID,25.1034,VALID,286,VALID,0.519922,
2011-11-09, 01:35:04,VALID,1003.86,VALID,0,VALID,88.3348,VALID,0.0815089,VALID,25.1423,VALID,292,VALID,1.31719,
2011-11-09, 01:36:04,VALID,1003.85,VALID,0,VALID,88.4416,VALID,0.0815089,VALID,25.1813,VALID,2,VALID,0.389453,
2011-11-09, 01:37:04,VALID,1003.8,VALID,0,VALID,88.3806,VALID,0,VALID,25.2007,VALID,351,VALID,0.451172,
2011-11-09, 01:38:04,VALID,1003.74,VALID,0,VALID,88.2585,VALID,0,VALID,25.2221,VALID,349,VALID,0.300781,
2011-11-09, 01:39:04,VALID,1003.76,VALID,0,VALID,88.1365,VALID,0,VALID,25.2221,VALID,302,VALID,0.561719,
2011-11-09, 01:40:04,VALID,1003.73,VALID,0,VALID,88.3958,VALID,0,VALID,25.2202,VALID,300,VALID,0.402344,
2011-11-09, 01:41:04,VALID,1003.68,VALID,0,VALID,88.022,VALID,0,VALID,25.2221,VALID,298,VALID,1.01094,
2011-11-09, 01:42:04,VALID,1003.67,VALID,0,VALID,87.9228,VALID,0.0815089,VALID,25.2007,VALID,287,VALID,1.50391,
2011-11-09, 01:43:04,VALID,1003.66,VALID,0,VALID,87.9381,VALID,0,VALID,25.2007,VALID,291,VALID,1.27305,
2011-11-09, 01:44:04,VALID,1003.65,VALID,0,VALID,88.0144,VALID,0,VALID,25.2221,VALID,314,VALID,0.764063,
2011-11-09, 01:45:04,VALID,1003.66,VALID,0,VALID,88.2661,VALID,0,VALID,25.2221,VALID,330,VALID,0.413672,
2011-11-09, 01:46:04,VALID,1003.68,VALID,0,VALID,88.2356,VALID,0,VALID,25.2202,VALID,287,VALID,0.35625,
2011-11-09, 01:47:04,VALID,1003.64,VALID,0,VALID,88.3119,VALID,0,VALID,25.2416,VALID,293,VALID,0.584375,
2011-11-09, 01:48:04,VALID,1003.63,VALID,0,VALID,88.3958,VALID,0,VALID,25.2202,VALID,262,VALID,0.542188,
2011-11-09, 01:49:04,VALID,1003.63,VALID,0,VALID,88.5408,VALID,0,VALID,25.1988,VALID,197,VALID,0.185937,
2011-11-09, 01:50:04,VALID,1003.62,VALID,0,VALID,88.3882,VALID,0,VALID,25.2007,VALID,159,VALID,0.179688,
2011-11-09, 01:51:04,VALID,1003.59,VALID,0,VALID,88.4416,VALID,0,VALID,25.1813,VALID,86,VALID,0.291016,
2011-11-09, 01:52:04,VALID,1003.56,VALID,0,VALID,88.5255,VALID,0,VALID,25.2007,VALID,16,VALID,0.633594,
2011-11-09, 01:53:04,VALID,1003.5,VALID,0,VALID,88.4416,VALID,0,VALID,25.2027,VALID,7,VALID,0.371484,
2011-11-09, 01:54:04,VALID,1003.51,VALID,0,VALID,88.7391,VALID,0,VALID,25.1832,VALID,357,VALID,0.440625,
2011-11-09, 01:55:04,VALID,1003.51,VALID,0,VALID,88.6628,VALID,0,VALID,25.1618,VALID,357,VALID,0.262891,
2011-11-09, 01:56:04,VALID,1003.47,VALID,0,VALID,88.7086,VALID,0,VALID,25.1832,VALID,357,VALID,0.323047,
2011-11-09, 01:57:04,VALID,1003.43,VALID,0,VALID,88.6934,VALID,0,VALID,25.1618,VALID,357,VALID,0.208984,
2011-11-09, 01:58:04,VALID,1003.38,VALID,0,VALID,88.8841,VALID,0,VALID,25.1637,VALID,357,VALID,0.341016,
2011-11-09, 01:59:04,VALID,1003.39,VALID,0,VALID,88.8154,VALID,0,VALID,25.1423,VALID,348,VALID,0.430469,
2011-11-09, 02:00:04,VALID,1003.37,VALID,0,VALID,88.8383,VALID,0,VALID,25.1423,VALID,348,VALID,0.463672,
2011-11-09, 02:01:04,VALID,1003.32,VALID,0,VALID,88.762,VALID,0,VALID,25.1442,VALID,359,VALID,0.674609,
2011-11-09, 02:02:04,VALID,1003.3,VALID,0,VALID,89.1282,VALID,0.0815089,VALID,25.1229,VALID,359,VALID,0.374609,
2011-11-09, 02:03:04,VALID,1003.28,VALID,0,VALID,89.0672,VALID,0,VALID,25.1034,VALID,359,VALID,0.608594,
2011-11-09, 02:04:04,VALID,1003.28,VALID,0,VALID,89.2655,VALID,0,VALID,25.0839,VALID,359,VALID,0.413281,
2011-11-09, 02:05:04,VALID,1003.32,VALID,0,VALID,89.4181,VALID,0,VALID,25.0644,VALID,360,VALID,0.537891,
2011-11-09, 02:06:04,VALID,1003.32,VALID,0,VALID,89.5631,VALID,0,VALID,25.045,VALID,359,VALID,0.567578,
2011-11-09, 02:07:04,VALID,1003.33,VALID,0,VALID,89.4715,VALID,0,VALID,25.045,VALID,343,VALID,0.55625,
2011-11-09, 02:08:04,VALID,1003.34,VALID,0,VALID,89.4868,VALID,0,VALID,25.0469,VALID,360,VALID,0.649609,
2011-11-09, 02:09:04,VALID,1003.33,VALID,0,VALID,89.029,VALID,0,VALID,25.045,VALID,346,VALID,0.747266,
2011-11-09, 02:10:04,VALID,1003.33,VALID,0,VALID,88.8231,VALID,0,VALID,25.0839,VALID,349,VALID,0.611719,
2011-11-09, 02:11:04,VALID,1003.35,VALID,0,VALID,88.6323,VALID,0,VALID,25.1248,VALID,348,VALID,0.465625,
2011-11-09, 02:12:04,VALID,1003.36,VALID,0,VALID,88.6094,VALID,0,VALID,25.1229,VALID,348,VALID,0.541797,
2011-11-09, 02:13:04,VALID,1003.38,VALID,0,VALID,88.4645,VALID,0,VALID,25.1618,VALID,347,VALID,0.335156,
2011-11-09, 02:14:04,VALID,1003.37,VALID,0,VALID,88.1593,VALID,0,VALID,25.2027,VALID,343,VALID,0.798047,
2011-11-09, 02:15:04,VALID,1003.39,VALID,0,VALID,87.9991,VALID,0,VALID,25.2202,VALID,337,VALID,0.905469,
2011-11-09, 02:16:04,VALID,1003.39,VALID,0,VALID,87.9839,VALID,0,VALID,25.2611,VALID,285,VALID,0.682031,
2011-11-09, 02:17:04,VALID,1003.42,VALID,0,VALID,88.0373,VALID,0,VALID,25.2786,VALID,332,VALID,0.573828,
2011-11-09, 02:18:04,VALID,1003.4,VALID,0,VALID,87.755,VALID,0,VALID,25.2981,VALID,34,VALID,0.497656,
2011-11-09, 02:19:04,VALID,1003.36,VALID,0,VALID,87.8008,VALID,0,VALID,25.3195,VALID,247,VALID,0.255078,
2011-11-09, 02:20:04,VALID,1003.34,VALID,0,VALID,87.7169,VALID,0,VALID,25.339,VALID,358,VALID,0.810938,
2011-11-09, 02:21:04,VALID,1003.27,VALID,0,VALID,87.2744,VALID,0,VALID,25.3565,VALID,339,VALID,0.825,
2011-11-09, 02:22:04,VALID,1003.25,VALID,0,VALID,87.3049,VALID,0,VALID,25.376,VALID,330,VALID,0.7,
2011-11-09, 02:23:04,VALID,1003.21,VALID,0,VALID,87.1447,VALID,0,VALID,25.376,VALID,350,VALID,0.746484,
2011-11-09, 02:24:04,VALID,1003.19,VALID,0,VALID,87.0074,VALID,0,VALID,25.376,VALID,343,VALID,0.972266,
2011-11-09, 02:25:04,VALID,1003.21,VALID,0,VALID,86.8243,VALID,0,VALID,25.3955,VALID,349,VALID,1.15,
2011-11-09, 02:26:04,VALID,1003.23,VALID,0,VALID,86.809,VALID,0,VALID,25.4363,VALID,345,VALID,0.754297,
2011-11-09, 02:27:04,VALID,1003.23,VALID,0,VALID,86.7861,VALID,0,VALID,25.4363,VALID,340,VALID,0.788672,
2011-11-09, 02:28:04,VALID,1003.27,VALID,0,VALID,86.8853,VALID,0.0815089,VALID,25.4344,VALID,354,VALID,0.697656,
2011-11-09, 02:29:04,VALID,1003.28,VALID,0,VALID,86.7785,VALID,0,VALID,25.4558,VALID,352,VALID,0.994531,
2011-11-09, 02:30:04,VALID,1003.33,VALID,0,VALID,86.8624,VALID,0,VALID,25.4149,VALID,346,VALID,0.646094,
2011-11-09, 02:31:04,VALID,1003.36,VALID,0,VALID,86.8472,VALID,0,VALID,25.4363,VALID,341,VALID,0.857813,
2011-11-09, 02:32:04,VALID,1003.4,VALID,0,VALID,87.0455,VALID,0,VALID,25.4363,VALID,321,VALID,0.447656,
2011-11-09, 02:33:04,VALID,1003.49,VALID,0,VALID,87.1218,VALID,0,VALID,25.4169,VALID,344,VALID,0.770703,
2011-11-09, 02:34:04,VALID,1003.54,VALID,0,VALID,87.3888,VALID,0,VALID,25.4169,VALID,3,VALID,0.639453,
2011-11-09, 02:35:04,VALID,1003.55,VALID,0,VALID,87.2439,VALID,0,VALID,25.3779,VALID,337,VALID,0.467187,
2011-11-09, 02:36:04,VALID,1003.61,VALID,0,VALID,87.2134,VALID,0,VALID,25.376,VALID,345,VALID,0.374609,
2011-11-09, 02:37:04,VALID,1003.61,VALID,0,VALID,87.4041,VALID,0,VALID,25.3779,VALID,14,VALID,0.525,
2011-11-09, 02:38:04,VALID,1003.63,VALID,0,VALID,87.2973,VALID,0,VALID,25.3565,VALID,343,VALID,0.667188,
2011-11-09, 02:39:04,VALID,1003.63,VALID,0,VALID,87.3888,VALID,0,VALID,25.3779,VALID,343,VALID,0.523047,
2011-11-09, 02:40:04,VALID,1003.65,VALID,0,VALID,87.4499,VALID,0,VALID,25.337,VALID,343,VALID,0.454297,
2011-11-09, 02:41:04,VALID,1003.64,VALID,0,VALID,87.5261,VALID,0,VALID,25.3584,VALID,343,VALID,0,
2011-11-09, 02:42:04,VALID,1003.63,VALID,0,VALID,87.6329,VALID,0,VALID,25.337,VALID,343,VALID,0.273438,
2011-11-09, 02:43:04,VALID,1003.63,VALID,0,VALID,88.0678,VALID,0,VALID,25.3584,VALID,343,VALID,0.0695312,
2011-11-09, 02:44:04,VALID,1003.61,VALID,0,VALID,87.8618,VALID,0,VALID,25.3584,VALID,343,VALID,0.239453,
2011-11-09, 02:45:04,VALID,1003.6,VALID,0,VALID,88.0068,VALID,0,VALID,25.337,VALID,339,VALID,0.490625,
2011-11-09, 02:46:04,VALID,1003.61,VALID,0,VALID,88.0983,VALID,0,VALID,25.337,VALID,336,VALID,0.287891,
2011-11-09, 02:47:04,VALID,1003.62,VALID,0,VALID,87.9991,VALID,0,VALID,25.3584,VALID,336,VALID,0.0195313,
2011-11-09, 02:48:04,VALID,1003.59,VALID,0,VALID,88.2051,VALID,0,VALID,25.3565,VALID,336,VALID,0.034375,
2011-11-09, 02:49:04,VALID,1003.56,VALID,0,VALID,88.0449,VALID,0,VALID,25.337,VALID,349,VALID,0.637891,
2011-11-09, 02:50:04,VALID,1003.52,VALID,0,VALID,87.9915,VALID,0,VALID,25.3176,VALID,350,VALID,0.757031,
2011-11-09, 02:51:04,VALID,1003.51,VALID,0,VALID,87.9228,VALID,0,VALID,25.3176,VALID,351,VALID,0.646094,
2011-11-09, 02:52:04,VALID,1003.51,VALID,0,VALID,87.961,VALID,0,VALID,25.339,VALID,351,VALID,0.41875,
2011-11-09, 02:53:04,VALID,1003.49,VALID,0,VALID,87.9915,VALID,0,VALID,25.339,VALID,351,VALID,0.733203,
2011-11-09, 02:54:04,VALID,1003.51,VALID,0,VALID,88.1517,VALID,0,VALID,25.339,VALID,351,VALID,0.0867188,
2011-11-09, 02:55:04,VALID,1003.52,VALID,0,VALID,87.9839,VALID,0,VALID,25.3195,VALID,351,VALID,0.499219,
2011-11-09, 02:56:04,VALID,1003.52,VALID,0,VALID,88.0602,VALID,0,VALID,25.3195,VALID,351,VALID,0.360938,
2011-11-09, 02:57:04,VALID,1003.57,VALID,0,VALID,88.2509,VALID,0,VALID,25.2786,VALID,351,VALID,0.0230469,
2011-11-09, 02:58:04,VALID,1003.56,VALID,0,VALID,88.0296,VALID,0,VALID,25.2786,VALID,347,VALID,0.582031,
2011-11-09, 02:59:04,VALID,1003.6,VALID,0,VALID,88.1365,VALID,0,VALID,25.3195,VALID,346,VALID,0.0851562,
2011-11-09, 03:00:04,VALID,1003.57,VALID,0,VALID,88.0296,VALID,0,VALID,25.2786,VALID,343,VALID,0.517187,
2011-11-09, 03:01:04,VALID,1003.55,VALID,0,VALID,88.2585,VALID,0,VALID,25.2592,VALID,359,VALID,0.557422,
2011-11-09, 03:02:04,VALID,1003.51,VALID,0,VALID,88.022,VALID,0,VALID,25.2611,VALID,356,VALID,0.472266,
2011-11-09, 03:03:04,VALID,1003.48,VALID,0,VALID,88.1899,VALID,0,VALID,25.2611,VALID,357,VALID,0.467578,
2011-11-09, 03:04:04,VALID,1003.46,VALID,0,VALID,88.5408,VALID,0,VALID,25.2611,VALID,357,VALID,0.311719,
2011-11-09, 03:05:04,VALID,1003.42,VALID,0,VALID,88.4264,VALID,0,VALID,25.2027,VALID,42,VALID,0.645312,
2011-11-09, 03:06:04,VALID,1003.39,VALID,0,VALID,88.8459,VALID,0,VALID,25.1637,VALID,7,VALID,0.635156,
2011-11-09, 03:07:04,VALID,1003.38,VALID,0,VALID,88.8688,VALID,0,VALID,25.1248,VALID,352,VALID,0.797266,
2011-11-09, 03:08:04,VALID,1003.31,VALID,0,VALID,89.029,VALID,0,VALID,25.0663,VALID,353,VALID,0.704687,
2011-11-09, 03:09:04,VALID,1003.35,VALID,0,VALID,89.113,VALID,0,VALID,25.0255,VALID,351,VALID,0.510156,
2011-11-09, 03:10:04,VALID,1003.3,VALID,0,VALID,89.3037,VALID,0,VALID,24.9866,VALID,349,VALID,0.789844,
2011-11-09, 03:11:04,VALID,1003.31,VALID,0,VALID,89.441,VALID,0,VALID,24.969,VALID,350,VALID,0.951563,
2011-11-09, 03:12:04,VALID,1003.31,VALID,0,VALID,89.5249,VALID,0,VALID,24.9282,VALID,356,VALID,0.888281,
2011-11-09, 03:13:04,VALID,1003.3,VALID,0,VALID,89.708,VALID,0,VALID,24.9087,VALID,360,VALID,0.529297,
2011-11-09, 03:14:04,VALID,1003.3,VALID,0,VALID,89.769,VALID,0,VALID,24.8697,VALID,13,VALID,0.930078,
2011-11-09, 03:15:04,VALID,1003.3,VALID,0,VALID,89.7767,VALID,0,VALID,24.8911,VALID,357,VALID,0.785156,
2011-11-09, 03:16:04,VALID,1003.31,VALID,0,VALID,89.7996,VALID,0,VALID,24.8484,VALID,354,VALID,0.632422,
2011-11-09, 03:17:04,VALID,1003.3,VALID,0,VALID,89.7614,VALID,0,VALID,24.8503,VALID,345,VALID,0.811719,
2011-11-09, 03:18:04,VALID,1003.32,VALID,0,VALID,89.708,VALID,0,VALID,24.8716,VALID,350,VALID,0.791797,
2011-11-09, 03:19:04,VALID,1003.32,VALID,0,VALID,89.8072,VALID,0,VALID,24.8503,VALID,259,VALID,0.370703,
2011-11-09, 03:20:04,VALID,1003.37,VALID,0,VALID,89.7233,VALID,0,VALID,24.8503,VALID,350,VALID,0.567969,
2011-11-09, 03:21:04,VALID,1003.41,VALID,0,VALID,89.7004,VALID,0,VALID,24.8697,VALID,349,VALID,0.0980469,
2011-11-09, 03:22:04,VALID,1003.42,VALID,0,VALID,89.7538,VALID,0,VALID,24.8697,VALID,332,VALID,0.410937,
2011-11-09, 03:23:04,VALID,1003.45,VALID,0,VALID,89.7614,VALID,0,VALID,24.8697,VALID,325,VALID,0.725,
2011-11-09, 03:24:04,VALID,1003.45,VALID,0,VALID,89.5554,VALID,0,VALID,24.8697,VALID,330,VALID,1.01289,
2011-11-09, 03:25:04,VALID,1003.49,VALID,0,VALID,89.5402,VALID,0,VALID,24.8911,VALID,354,VALID,0.742578,
2011-11-09, 03:26:04,VALID,1003.46,VALID,0,VALID,89.5859,VALID,0,VALID,24.8892,VALID,350,VALID,0.89375,
2011-11-09, 03:27:04,VALID,1003.51,VALID,0,VALID,89.6241,VALID,0,VALID,24.8697,VALID,354,VALID,0.941406,
2011-11-09, 03:28:04,VALID,1003.5,VALID,0,VALID,89.5631,VALID,0,VALID,24.8484,VALID,342,VALID,1.04531,
2011-11-09, 03:29:04,VALID,1003.46,VALID,0,VALID,89.6241,VALID,0,VALID,24.8503,VALID,352,VALID,0.5,
2011-11-09, 03:30:04,VALID,1003.44,VALID,0,VALID,89.5554,VALID,0.0815089,VALID,24.8503,VALID,351,VALID,0.851953,
2011-11-09, 03:31:04,VALID,1003.43,VALID,0,VALID,89.6699,VALID,0,VALID,24.8308,VALID,347,VALID,0.884375,
2011-11-09, 03:32:04,VALID,1003.42,VALID,0,VALID,89.7996,VALID,0,VALID,24.8327,VALID,340,VALID,0.542188,
2011-11-09, 03:33:04,VALID,1003.41,VALID,0,VALID,89.853,VALID,0,VALID,24.8132,VALID,2,VALID,0.660937,
2011-11-09, 03:34:04,VALID,1003.42,VALID,0,VALID,89.8835,VALID,0,VALID,24.7919,VALID,349,VALID,0.929688,
2011-11-09, 03:35:04,VALID,1003.38,VALID,0,VALID,89.9979,VALID,0,VALID,24.7743,VALID,349,VALID,0.794531,
2011-11-09, 03:36:04,VALID,1003.4,VALID,0,VALID,90.0742,VALID,0,VALID,24.7743,VALID,348,VALID,0.469531,
2011-11-09, 03:37:04,VALID,1003.36,VALID,0,VALID,90.1581,VALID,0,VALID,24.7335,VALID,349,VALID,0.364062,
2011-11-09, 03:38:04,VALID,1003.32,VALID,0,VALID,90.0894,VALID,0,VALID,24.714,VALID,345,VALID,0.567578,
2011-11-09, 03:39:04,VALID,1003.33,VALID,0,VALID,90.1734,VALID,0,VALID,24.714,VALID,346,VALID,0.435156,
2011-11-09, 03:40:04,VALID,1003.33,VALID,0,VALID,90.2497,VALID,0,VALID,24.7159,VALID,347,VALID,0.230078,
2011-11-09, 03:41:04,VALID,1003.34,VALID,0,VALID,90.3259,VALID,0,VALID,24.675,VALID,346,VALID,0.0234375,
2011-11-09, 03:42:04,VALID,1003.37,VALID,0,VALID,90.4099,VALID,0,VALID,24.6769,VALID,346,VALID,0.00117188,